Theta_e
311 311 312 312 313 313 313 312 312 312 312 312 313 313 313 312 312 311 312 315 316 314 311 309 308 306 306 306 306 308 311 312 313 315 320 324 319 319 319 317 317 315 313 310 308 310 311 308 309 311 312 314 314 314 313 314 314 313 315 313 312 315 314 315 316 316 316 317 321 327 328 330 337 339 338 339 339 339 339 338 338 338 338 336 334 335 337 339
311 312 313 312 313 313 313 312 312 312 312 313 313 312 312 312 311 310 312 315 316 315 312 309 308 307 306 307 307 310 316 318 319 321 323 319 316 316 314 312 315 315 312 308 309 311 312 311 311 312 314 316 314 313 314 315 315 315 318 315 314 317 316 315 315 315 316 317 320 325 327 329 334 337 337 342 341 339 341 340 338 338 338 337 336 336 337 337
312 312 312 312 313 313 313 312 312 312 312 312 312 311 311 310 310 310 312 315 316 316 314 311 308 307 306 307 309 313 319 321 325 329 321 313 313 312 311 310 312 313 310 308 309 311 313 314 313 314 314 316 315 313 314 315 316 316 317 316 317 319 315 315 315 315 316 317 319 319 321 327 329 333 338 342 342 340 341 340 339 339 339 339 338 335 336 336
311 311 312 313 313 313 312 312 311 311 310 310 310 310 309 309 309 309 312 314 315 316 315 312 309 308 307 308 311 315 319 322 323 319 313 311 311 310 311 308 308 309 308 308 310 313 314 314 314 315 314 314 315 313 313 315 316 315 316 317 319 317 315 316 315 315 318 317 319 318 322 328 325 332 339 340 342 343 340 338 338 338 338 339 339 336 335 336
310 311 312 313 314 313 313 313 312 311 310 309 309 309 308 308 309 310 313 315 315 316 315 314 311 309 307 309 314 317 321 321 315 313 312 312 311 310 309 307 307 307 307 308 310 313 314 314 314 316 314 313 314 313 314 314 314 315 316 317 318 316 315 316 315 317 319 319 320 319 321 324 323 332 338 340 343 343 339 336 335 335 337 338 338 336 335 335
310 311 312 314 314 314 314 314 313 313 312 311 310 309 309 309 310 312 314 315 315 315 315 314 311 310 307 311 317 319 323 320 315 315 313 313 312 310 309 307 307 307 307 308 310 312 315 315 315 316 314 313 314 314 315 314 314 315 315 316 316 315 315 314 315 318 320 319 319 318 318 320 324 329 331 335 340 340 338 336 335 335 337 337 336 336 336 338
310 311 314 315 315 315 315 315 315 315 315 314 312 311 311 311 313 314 315 315 315 315 316 314 311 310 309 314 320 322 328 325 316 315 313 313 312 311 310 308 307 307 308 309 311 314 316 316 315 316 315 315 315 315 315 314 314 314 315 316 315 315 315 315 316 318 320 319 318 317 317 321 325 325 326 332 336 337 337 337 338 337 337 336 335 336 336 336
310 312 314 315 315 315 316 316 317 317 317 317 315 314 313 314 315 316 316 316 316 316 315 314 311 310 312 317 323 328 332 327 316 314 314 312 311 312 312 311 310 309 310 310 313 314 316 317 315 315 315 315 316 315 315 314 314 314 314 315 316 316 315 316 317 318 319 319 318 318 317 318 322 326 331 336 337 337 338 337 338 336 335 335 335 336 336 336
310 312 315 315 315 315 316 316 317 318 318 318 317 316 316 316 317 317 317 316 316 315 314 313 310 310 317 320 324 326 326 320 315 313 312 311 311 312 313 312 312 311 312 313 314 314 315 317 315 314 315 315 314 315 314 313 314 315 315 315 315 315 315 316 317 317 318 319 318 318 318 318 318 324 332 338 337 337 338 336 336 336 335 335 335 335 336 339
310 312 315 315 316 316 316 316 317 317 318 319 318 317 316 317 317 318 317 316 316 314 313 313 311 314 319 322 324 322 321 315 313 313 311 312 312 314 315 313 313 312 313 314 315 315 316 317 315 314 314 313 314 314 313 313 314 315 316 316 315 315 316 315 316 317 318 318 318 317 318 318 317 320 329 335 337 336 337 336 336 335 336 336 335 335 335 338
310 312 315 315 316 316 316 316 316 317 317 318 319 318 317 317 317 317 316 316 315 314 313 312 314 319 319 323 326 319 319 314 312 316 315 315 315 316 317 316 316 316 315 316 316 316 316 316 314 314 314 313 314 314 314 314 313 315 316 316 317 316 315 315 315 316 316 317 318 317 316 318 316 317 326 334 337 337 338 337 336 336 336 336 335 335 334 334
310 312 315 316 316 316 316 316 316 316 316 317 319 319 318 318 318 317 316 315 315 314 314 312 315 321 321 326 328 318 317 317 314 315 315 317 318 317 318 318 317 317 317 317 316 315 315 315 314 314 314 313 314 314 315 314 313 315 315 315 317 316 314 315 315 315 315 316 318 317 315 319 319 315 323 334 335 336 337 336 336 336 336 335 335 335 335 336
310 312 315 316 316 316 316 316 317 317 316 316 317 319 319 319 319 318 317 316 316 315 315 313 314 320 323 322 320 318 318 318 316 315 316 317 317 317 318 317 317 316 316 316 315 314 313 314 314 314 314 313 314 314 314 314 313 314 314 314 315 314 314 315 314 314 314 316 318 316 314 320 322 315 321 331 333 335 335 334 336 337 337 337 337 338 338 339
310 312 315 316 316 316 316 317 318 317 317 317 317 318 318 318 319 318 318 317 317 316 315 316 315 320 326 317 312 317 317 317 317 316 317 317 316 317 317 316 316 314 314 315 314 314 314 315 314 314 315 314 314 314 315 315 314 315 314 314 313 310 313 315 314 314 313 315 318 315 313 318 322 315 320 329 331 333 334 335 338 339 341 340 341 341 340 340
310 312 315 316 316 316 316 317 317 318 318 318 317 318 318 319 319 319 319 317 317 317 315 319 320 322 330 322 313 315 316 317 317 317 317 317 317 317 316 315 315 314 315 314 314 314 314 314 314 315 315 315 315 314 315 314 314 315 312 313 315 309 312 315 313 315 314 314 316 315 313 316 319 316 317 324 329 332 334 337 340 343 343 343 343 342 341 340
310 312 315 316 316 316 317 316 317 317 318 318 319 320 320 321 321 321 320 318 319 318 317 321 321 322 327 319 313 315 315 316 316 316 317 317 317 316 315 315 314 315 315 314 315 314 314 315 314 316 315 315 314 313 318 320 321 324 314 311 314 310 312 314 313 315 313 313 315 315 315 317 321 321 319 321 325 330 334 339 343 344 344 343 343 342 341 341
311 313 315 316 315 316 317 317 317 317 317 319 320 321 323 322 322 322 320 319 320 320 319 320 320 322 324 316 314 317 315 316 316 316 316 316 316 315 314 315 314 314 314 314 314 314 314 314 314 316 316 317 316 317 324 324 322 325 320 315 315 312 314 315 315 318 315 315 315 312 319 323 326 327 326 325 324 327 334 340 344 344 344 342 342 342 342 342
311 313 315 316 316 316 317 317 317 317 318 320 321 323 324 323 323 322 320 320 321 322 321 321 321 322 322 318 317 319 316 315 316 314 315 315 315 315 315 315 315 314 314 314 314 315 314 315 318 319 321 323 323 321 323 320 317 319 320 320 319 316 317 317 318 320 316 314 314 317 324 328 330 329 328 329 329 329 333 339 342 342 341 340 340 341 342 341
311 313 315 316 316 316 317 316 316 317 319 321 322 324 326 326 327 324 321 321 322 325 325 325 327 322 318 318 317 317 315 315 316 315 315 315 315 315 316 315 316 315 315 316 316 315 314 317 320 320 322 324 321 320 320 319 319 319 319 319 318 317 318 319 318 319 319 319 321 325 327 329 329 329 330 331 332 334 334 335 337 337 337 339 340 340 339 340
311 313 315 316 316 316 317 316 316 317 318 321 321 327 331 330 333 331 325 324 325 325 323 324 326 319 315 318 317 316 317 316 317 316 316 316 316 316 316 316 316 316 316 317 317 315 318 323 321 319 322 322 319 320 321 321 321 322 321 320 319 318 318 320 319 319 322 325 326 327 327 327 328 328 329 329 331 334 335 336 336 336 338 338 339 338 338 338
311 314 315 316 315 316 316 316 316 317 319 320 321 331 336 330 332 332 327 327 325 322 324 326 323 318 316 317 316 317 318 317 317 317 317 316 317 318 319 317 316 318 317 317 319 320 327 328 322 320 321 320 320 321 321 321 322 323 323 322 321 320 319 320 320 318 321 326 327 326 326 327 326 327 328 328 330 331 333 336 337 337 337 337 337 336 336 335
311 313 314 315 315 316 316 316 317 317 320 322 322 330 331 326 327 326 324 326 325 321 322 323 320 318 319 318 318 318 318 319 318 317 318 318 318 318 319 318 317 319 318 319 325 327 327 325 320 318 319 319 320 320 320 321 324 325 325 326 325 321 320 321 321 319 321 326 327 326 327 327 325 325 326 326 327 329 330 331 333 335 336 335 336 336 336 337
311 312 314 314 315 316 316 317 318 320 321 322 323 325 326 326 327 324 324 327 329 327 320 318 319 319 320 319 318 319 318 320 320 319 319 319 320 319 319 320 319 319 318 318 323 324 322 321 319 317 318 320 319 319 319 320 323 325 324 326 325 321 321 322 322 319 320 325 327 326 326 327 326 325 325 325 325 325 326 327 329 331 331 329 330 331 332 335
311 312 313 314 315 316 317 318 321 322 322 323 323 323 324 327 327 325 329 332 333 332 322 317 320 320 321 320 318 320 320 319 320 321 320 319 321 321 319 320 321 321 319 318 320 321 320 320 317 316 317 319 319 319 317 318 323 325 325 324 322 321 321 321 321 322 322 323 323 325 328 328 327 326 326 325 324 323 324 325 328 329 329 328 328 329 329 331
311 312 312 313 315 316 318 321 323 322 323 325 324 325 325 326 325 324 336 344 338 333 324 317 321 321 320 320 319 320 320 320 321 321 321 320 320 321 321 321 321 321 319 318 319 320 319 318 317 316 317 317 318 318 316 317 320 325 328 325 321 322 321 319 321 326 329 325 319 326 334 331 328 327 327 325 324 324 324 325 326 328 329 330 332 333 333 332
311 312 312 313 314 317 320 323 323 321 324 325 325 326 324 325 325 323 341 351 337 327 324 319 321 321 318 321 320 320 323 323 321 320 320 320 319 320 323 322 321 320 318 320 323 322 319 317 317 317 317 318 319 318 317 317 317 320 325 326 323 322 321 320 320 325 329 326 319 324 334 332 329 329 328 326 325 324 324 325 325 326 328 330 332 333 334 333
311 312 312 312 315 320 323 323 324 323 325 326 326 327 323 323 324 324 341 345 329 320 322 321 321 320 319 321 320 322 325 322 321 321 319 320 320 320 321 320 320 318 316 325 328 323 319 317 318 318 318 320 318 318 318 318 317 318 323 325 324 323 322 321 323 325 325 324 323 324 330 334 332 330 329 327 326 326 326 326 325 325 326 327 330 330 331 331
311 312 312 312 316 322 325 324 324 325 326 326 326 325 322 322 324 333 342 332 320 319 322 321 321 319 320 320 320 324 324 321 323 322 318 319 320 321 320 317 319 317 316 324 324 319 319 318 317 318 319 318 316 316 318 319 319 320 321 322 322 323 324 324 325 326 325 329 332 328 328 335 332 329 329 328 328 328 328 327 326 326 325 325 327 329 330 331
311 312 312 312 318 324 324 323 324 325 325 325 324 322 321 323 329 345 343 326 318 321 322 322 321 320 321 320 321 322 321 323 322 319 318 318 317 320 320 316 317 318 316 320 321 319 319 318 317 318 318 316 315 316 319 320 321 320 318 320 324 326 330 331 327 326 330 334 332 327 328 334 331 328 331 331 330 329 328 327 326 326 326 325 326 327 327 328
311 312 311 315 321 323 321 323 325 325 324 323 322 321 324 332 342 346 334 323 324 325 322 324 322 321 321 321 325 323 321 323 320 317 317 317 316 317 318 317 316 319 319 319 320 319 318 319 320 318 317 316 316 317 318 318 320 320 321 324 330 333 335 339 335 335 338 333 327 326 329 336 333 329 332 331 328 327 326 326 326 325 325 325 324 324 323 324
311 311 312 316 320 320 320 325 325 322 322 322 322 326 334 342 350 343 328 322 330 331 327 326 325 323 322 322 324 322 321 323 320 318 317 317 316 315 318 318 317 321 322 320 322 320 316 318 319 317 317 318 319 320 318 318 319 321 325 328 332 334 334 337 338 340 337 329 326 327 327 332 334 331 330 329 327 327 325 325 325 325 323 323 322 322 322 322
312 312 314 316 317 317 320 325 323 322 324 322 326 342 350 344 341 337 330 325 328 329 327 325 323 322 326 327 323 318 322 325 320 317 318 318 316 315 317 316 318 325 324 322 324 321 317 317 316 316 317 318 322 322 320 322 322 323 327 330 332 334 335 335 335 335 332 327 326 327 327 330 331 331 330 330 330 328 325 324 324 324 323 322 322 321 321 321
315 316 317 317 318 318 319 321 321 323 325 324 334 352 356 344 335 332 332 327 324 324 325 326 323 320 326 329 325 322 323 322 320 319 319 318 317 318 317 314 317 323 321 322 324 325 329 327 319 317 319 318 320 321 321 322 323 322 326 332 331 331 334 334 332 330 329 329 326 325 330 331 329 332 334 331 327 325 324 324 323 323 323 322 322 321 321 321
317 318 317 318 319 318 318 319 319 324 324 326 341 352 347 338 333 333 332 328 325 322 323 326 325 325 327 325 322 323 322 319 319 321 320 320 322 322 319 316 315 317 322 327 324 323 329 328 320 318 318 318 317 318 318 321 323 322 323 329 330 329 331 332 335 334 329 330 331 328 330 331 330 334 334 327 323 323 323 323 322 323 323 322 322 322 322 321
318 319 320 322 321 319 320 320 322 325 324 330 347 352 342 332 330 332 330 328 327 323 325 327 325 328 333 330 325 320 319 318 319 322 320 320 323 323 318 315 313 315 322 327 322 319 322 321 319 318 316 317 318 316 317 324 328 323 322 328 328 326 331 330 331 333 332 332 332 330 329 329 330 332 331 325 323 324 322 321 322 323 323 323 323 323 323 322
318 320 324 326 325 325 323 324 327 326 326 338 351 347 338 329 329 330 326 326 326 325 332 331 323 324 328 331 327 319 318 320 323 329 326 321 323 320 316 314 313 314 317 320 322 320 321 322 320 319 317 316 316 315 316 321 326 325 325 326 321 321 332 334 327 329 334 334 329 328 330 331 330 330 330 327 325 324 322 321 323 324 324 324 325 325 325 324
318 319 322 325 328 327 325 328 327 323 334 349 346 339 336 328 326 327 324 325 327 330 337 331 321 321 321 322 322 317 320 324 327 332 327 325 326 319 315 315 313 314 315 320 325 321 321 326 323 320 319 317 315 316 316 316 321 327 325 322 322 323 331 336 332 331 334 332 328 328 331 332 330 329 328 326 324 324 322 322 323 323 324 325 325 326 326 326
317 319 323 325 326 326 328 329 323 325 345 355 345 337 335 328 324 324 323 324 329 337 338 327 321 322 322 322 321 318 321 323 326 331 326 325 326 317 313 315 314 315 317 323 327 322 323 329 326 321 320 319 317 317 319 317 317 322 321 320 328 331 330 332 331 331 332 331 329 329 329 330 329 328 327 324 323 324 323 324 324 323 324 324 325 326 325 326
320 328 334 328 324 327 326 323 326 339 351 351 344 337 328 324 322 323 325 323 327 338 336 325 324 327 325 324 322 320 322 320 321 330 328 322 323 319 314 315 316 318 319 321 322 321 327 331 328 324 321 319 321 321 322 322 318 318 319 322 328 329 329 330 328 327 331 332 330 329 328 328 329 328 325 323 323 325 325 325 326 325 324 324 325 325 324 326
324 335 341 327 321 325 321 321 335 349 349 344 341 332 322 322 322 324 329 324 322 329 329 325 328 329 325 324 322 320 321 318 320 329 326 320 322 322 315 316 319 319 320 323 322 323 330 332 329 326 322 319 321 320 319 321 321 321 322 325 327 327 328 331 329 325 329 331 330 330 329 329 330 327 322 323 325 325 326 326 325 324 324 324 325 324 324 325
326 338 342 327 319 322 326 333 341 345 345 341 334 323 320 324 321 323 329 326 321 323 324 326 328 325 323 325 324 320 321 321 320 326 326 320 321 321 317 317 316 317 325 330 326 324 329 332 331 330 325 321 320 318 318 319 320 322 325 323 324 328 330 332 331 327 330 331 329 330 330 329 331 328 322 322 325 325 327 327 324 323 324 324 324 324 324 324
331 337 337 326 319 322 333 344 342 338 339 333 324 320 322 325 322 321 326 327 325 323 324 326 325 322 321 324 323 318 322 324 320 324 324 319 320 320 319 317 313 318 328 329 323 324 330 333 332 328 323 319 317 317 319 320 319 321 323 323 326 330 332 333 331 329 331 329 327 329 330 330 333 329 323 322 325 326 327 327 325 322 323 323 322 323 325 325
337 336 332 324 320 324 338 344 338 334 331 326 323 322 321 322 321 321 325 328 328 328 327 323 323 324 320 321 322 318 322 325 321 322 321 318 319 319 318 317 314 318 326 324 321 325 331 331 329 329 331 329 323 320 322 323 324 323 320 322 327 324 325 331 330 331 333 328 328 331 329 331 334 328 323 324 325 325 326 327 326 323 323 324 322 322 324 324
337 337 336 327 320 325 337 338 334 332 328 325 324 322 321 321 320 321 324 326 328 330 327 320 321 324 320 321 322 317 322 327 322 319 320 320 318 317 320 319 314 318 323 322 321 323 326 328 330 333 336 334 329 328 328 324 324 324 320 321 324 322 325 328 326 331 332 325 327 332 329 333 335 326 323 324 323 323 323 324 326 324 323 322 322 324 325 323
336 338 337 329 322 324 332 339 343 339 333 332 330 325 323 320 318 321 324 324 326 329 328 323 323 327 327 326 323 317 321 328 324 320 321 323 319 317 321 320 316 320 322 323 328 328 325 328 334 337 332 326 324 326 327 324 322 326 326 322 321 324 326 324 324 330 329 323 328 332 329 332 332 324 320 322 323 323 321 321 323 323 322 322 322 323 324 322
333 338 336 334 331 329 332 340 344 339 336 341 336 327 326 322 317 320 322 323 325 326 328 327 326 329 331 331 329 322 320 323 325 323 320 322 320 315 317 319 318 322 324 325 334 337 333 331 334 336 332 330 332 330 327 326 323 324 325 321 319 323 328 330 330 328 324 325 330 330 327 329 328 323 320 320 322 322 321 320 321 322 322 322 322 321 321 320
332 338 335 331 334 340 339 337 340 339 338 339 331 323 327 324 318 320 321 323 325 325 328 329 328 329 328 330 334 329 325 327 328 325 322 323 322 316 316 318 319 325 328 325 331 340 339 332 327 325 325 329 333 330 325 323 322 321 320 319 319 323 330 335 332 325 324 329 328 323 325 327 324 321 319 318 320 321 321 321 322 322 321 320 322 321 320 319
335 341 337 327 332 345 343 334 338 341 335 334 329 326 330 327 323 322 320 321 324 327 331 328 326 329 328 331 337 334 331 334 331 327 326 326 326 323 319 318 320 327 329 323 329 340 336 326 321 320 321 325 327 328 327 324 322 322 322 321 321 322 324 325 324 325 330 332 325 321 325 325 323 320 319 318 319 320 321 321 322 322 320 320 322 321 318 318
338 342 340 331 331 342 342 334 339 340 335 337 334 328 333 334 328 324 321 324 326 326 330 327 322 327 331 337 342 334 330 334 330 327 328 327 327 327 321 317 317 323 328 324 325 333 332 326 322 320 321 324 325 326 329 327 323 322 323 324 324 326 326 322 322 327 330 326 324 326 325 323 323 322 319 319 318 318 320 320 320 321 320 321 322 319 317 317
335 337 338 337 338 343 341 333 339 342 335 337 334 328 334 335 326 323 326 331 328 323 328 329 324 324 331 340 342 331 329 337 332 323 327 330 327 324 322 317 314 318 326 325 320 323 327 324 322 325 326 325 324 325 327 328 323 320 325 328 326 325 324 321 322 325 323 320 324 327 323 320 323 324 321 318 317 319 320 320 321 321 320 320 319 318 318 317
324 326 329 335 341 345 339 330 338 340 331 335 337 330 332 334 327 324 325 327 330 327 327 331 328 325 329 335 332 324 325 335 331 322 331 336 327 322 322 319 317 320 321 320 320 323 325 324 326 333 330 323 324 325 325 328 325 321 327 331 326 322 320 319 321 322 320 320 322 322 321 321 325 325 320 317 318 320 321 321 321 320 320 320 318 318 319 319
321 323 326 331 337 342 337 330 334 337 334 342 344 332 331 334 330 329 324 319 324 326 324 331 337 336 333 331 329 324 322 324 322 321 329 332 324 322 321 317 321 326 322 320 321 322 326 327 325 326 327 325 327 325 325 329 327 324 330 330 325 324 323 320 321 321 320 323 325 323 324 325 326 324 319 318 321 322 321 322 322 319 319 319 317 318 318 318
Wind_Speed
10 10 10 10 11 11 11 11 10 9 9 10 9 9 9 9 8 7 7 7 7 7 7 7 6 6 6 6 7 8 11 8 5 5 5 5 5 6 7 6 4 4 3 3 4 3 1 3 6 6 2 2 2 2 3 5 3 3 3 4 4 3 4 2 3 5 4 2 3 4 10 19 14 10 8 8 13 12 7 5 5 9 8 6 9 19 23 22
10 10 10 11 11 11 10 9 9 9 9 9 9 9 9 8 8 7 7 7 7 7 7 7 6 6 5 5 6 8 10 8 5 7 9 6 4 5 6 5 5 5 4 4 5 2 2 2 5 5 1 1 2 2 2 2 3 4 3 2 4 5 5 4 4 7 5 1 3 3 5 15 17 11 7 7 8 12 12 5 5 8 7 8 10 14 16 16
11 11 11 11 11 10 9 9 9 9 9 9 9 9 9 8 8 7 7 7 7 7 7 6 6 6 5 5 6 7 8 6 3 6 6 2 2 3 4 5 6 6 5 6 6 4 2 5 8 6 0 2 2 2 2 3 1 3 3 2 5 5 5 6 4 9 7 3 1 4 3 10 14 9 7 10 10 11 13 8 5 8 7 6 4 8 12 11
11 11 11 10 10 9 9 9 10 10 10 10 10 9 9 8 7 7 7 7 7 7 7 7 7 6 5 6 5 6 6 4 2 4 2 2 3 2 2 3 5 6 7 8 7 6 5 8 8 3 2 3 3 1 2 4 2 1 4 4 6 5 4 7 6 9 7 2 2 2 4 7 8 10 11 14 11 5 10 14 14 14 12 10 6 7 9 8
11 10 10 10 10 10 10 10 10 11 10 10 10 10 9 8 8 7 6 6 6 7 8 8 8 6 5 5 4 4 4 3 2 4 2 3 4 3 3 3 5 7 8 9 8 5 7 8 4 1 2 3 3 1 4 6 3 2 3 5 7 4 4 9 7 7 5 3 5 5 5 2 6 14 16 17 13 6 9 13 17 20 16 13 11 8 7 6
10 10 11 11 11 11 11 11 11 11 10 10 10 10 10 9 8 7 6 6 7 8 9 9 8 7 6 4 2 3 3 1 4 3 2 3 4 3 4 5 7 7 9 8 5 4 6 4 2 2 2 2 4 4 6 5 5 4 4 5 7 5 6 7 3 4 2 5 4 2 3 2 6 12 13 14 13 12 13 14 15 16 15 15 13 9 7 6
11 11 11 12 12 12 11 11 11 11 11 11 10 10 9 9 8 7 7 8 8 9 9 9 8 6 5 3 1 2 2 2 4 2 3 4 4 2 3 4 6 6 8 6 3 2 3 3 2 4 2 1 4 5 6 4 6 6 5 5 7 7 7 5 4 4 4 5 1 1 4 3 7 7 7 10 12 14 14 12 10 11 13 14 11 9 9 8
11 11 12 13 12 12 12 12 12 12 12 11 10 9 8 8 8 8 8 8 8 9 9 8 7 5 4 1 0 2 2 3 2 3 3 4 3 3 3 4 5 6 6 6 5 1 3 5 5 2 1 2 3 4 7 5 3 6 6 5 4 4 4 6 4 2 2 1 0 4 4 3 7 9 11 12 14 16 15 12 11 13 14 14 12 12 10 7
11 11 12 13 12 12 12 12 12 12 12 11 10 9 8 7 7 7 7 7 8 8 8 7 7 6 4 1 1 4 3 4 2 5 6 6 5 5 5 4 4 6 5 7 6 1 2 2 4 2 2 5 2 4 7 4 2 5 5 4 3 3 4 6 4 2 2 1 3 4 3 4 5 11 12 14 18 17 17 16 16 16 16 14 13 13 10 8
11 11 12 12 12 12 13 13 12 12 11 11 10 8 8 7 7 6 7 6 7 7 7 7 7 6 4 1 3 4 3 1 8 9 9 9 8 7 6 5 6 7 7 8 6 5 5 5 6 4 3 3 2 5 6 2 3 5 3 2 3 5 4 3 4 5 4 2 2 1 4 5 2 9 8 12 19 19 18 17 16 16 15 14 12 11 9 8
10 11 12 12 12 13 13 13 12 11 10 10 10 9 8 8 7 7 7 7 6 7 7 7 7 6 2 1 5 3 3 4 8 6 5 6 7 6 6 5 7 9 10 9 11 10 11 14 10 2 0 2 3 6 6 2 3 7 3 3 6 6 6 3 4 5 2 3 3 5 3 5 3 7 12 15 18 20 20 18 16 15 14 14 13 10 8 8
10 11 11 12 12 13 13 13 12 11 11 11 10 9 8 8 8 9 9 9 9 9 9 7 6 5 3 2 3 2 6 7 5 3 3 5 6 7 8 9 10 11 11 9 12 11 8 10 3 3 1 2 4 4 6 5 5 6 2 3 7 7 8 7 7 5 1 3 4 4 2 6 4 5 17 20 19 20 20 18 16 14 13 12 12 9 8 9
9 10 11 11 12 13 13 13 13 12 11 10 10 9 8 8 8 9 9 10 10 10 10 8 7 6 3 2 2 3 7 5 2 4 7 7 9 11 12 14 14 12 12 12 11 12 8 7 5 2 3 2 3 2 5 9 6 5 2 1 4 7 7 8 5 3 1 2 3 5 1 5 6 3 15 19 20 21 19 18 16 13 12 11 11 10 8 10
8 9 10 10 11 13 13 14 13 12 11 11 10 9 8 8 8 8 8 9 9 9 9 8 8 6 3 1 2 2 3 4 3 6 7 7 11 12 12 13 12 10 10 12 11 10 11 11 6 2 2 0 3 3 6 7 4 4 4 3 3 3 5 9 5 3 1 3 6 7 1 5 8 2 13 18 20 22 19 17 16 14 12 11 10 10 9 9
7 8 9 10 11 12 13 13 12 12 12 11 10 9 9 9 8 9 8 9 9 8 8 7 7 4 3 3 2 1 3 6 8 12 9 11 14 10 11 12 12 10 8 9 10 8 9 9 4 1 3 2 1 4 5 4 4 3 2 4 3 1 6 10 6 6 6 3 4 7 1 5 7 6 7 17 19 23 20 17 17 15 14 12 10 10 9 8
6 8 9 9 10 12 13 13 13 12 11 11 11 9 11 11 9 8 7 8 8 7 6 5 6 4 3 2 4 2 4 7 9 13 12 15 16 11 10 10 12 14 11 12 13 10 8 4 1 1 2 4 3 3 4 4 5 3 1 2 4 3 5 8 8 2 5 1 2 4 2 3 6 13 7 8 13 16 17 16 16 14 13 11 8 7 6 5
6 7 8 9 9 11 13 13 13 12 11 12 11 11 12 11 9 8 6 5 5 5 3 2 4 4 2 2 4 3 6 10 10 11 12 14 16 13 9 5 8 12 11 12 12 9 5 2 1 1 2 3 1 3 5 4 5 5 3 2 3 4 5 6 10 11 6 2 2 2 8 8 10 15 14 9 11 13 14 13 13 12 10 8 7 6 5 5
5 6 8 8 8 11 12 14 13 13 13 12 13 14 12 9 8 6 3 2 3 3 3 2 1 4 2 3 4 5 5 8 9 10 11 11 13 14 10 5 5 5 4 5 6 4 1 2 1 2 4 4 3 5 6 2 3 4 4 3 3 4 7 8 7 10 11 6 3 9 12 11 15 15 13 11 11 14 12 9 9 9 10 8 9 8 7 7
5 6 7 7 8 10 12 13 13 14 14 13 16 15 10 6 4 2 2 2 1 3 1 1 1 3 2 4 4 5 5 6 7 7 10 11 10 12 12 7 4 1 3 3 3 1 1 3 3 2 4 4 5 6 6 3 4 5 4 4 4 5 5 7 8 10 15 16 11 16 15 13 16 16 15 14 14 13 10 11 9 8 10 8 9 8 7 8
5 6 7 7 8 9 11 13 13 15 15 16 20 13 6 7 4 2 1 2 3 5 5 3 3 2 2 4 3 4 3 4 4 5 9 10 5 6 7 5 3 1 1 3 3 2 3 4 2 3 3 2 6 6 6 5 6 6 4 4 5 6 4 6 10 11 16 17 11 17 19 15 15 15 15 15 17 17 12 12 9 8 9 8 10 9 8 8
5 5 6 7 8 9 10 12 14 16 16 19 18 7 2 3 2 2 4 3 4 9 8 9 10 5 2 3 3 2 1 2 3 6 11 10 2 2 4 1 3 4 4 4 1 3 5 6 2 1 3 6 6 5 6 7 8 6 4 4 5 5 3 4 10 11 14 15 9 16 20 15 14 13 14 16 18 15 11 11 10 9 9 7 10 10 8 6
5 5 6 7 8 9 9 11 14 14 15 17 13 3 1 1 3 3 3 3 7 5 5 9 8 3 2 3 3 2 2 2 3 6 9 6 4 3 2 2 2 4 6 2 3 5 6 3 3 4 6 8 8 8 9 8 7 6 4 4 4 3 1 3 8 10 11 12 8 13 17 13 12 13 14 15 14 11 10 11 9 9 9 7 7 7 8 8
5 6 7 7 8 9 9 11 12 12 16 17 11 3 2 4 7 10 4 2 6 5 2 2 2 2 3 2 2 4 3 0 1 4 5 3 4 0 0 3 3 2 4 5 6 5 4 2 3 9 9 10 9 8 8 7 5 4 4 4 1 2 3 1 3 5 8 11 8 9 13 9 9 11 13 13 12 11 11 11 10 9 10 8 6 5 4 5
5 6 7 7 8 8 10 10 9 12 17 13 8 6 7 10 13 13 6 2 3 5 3 1 1 2 2 2 2 3 2 1 1 3 3 2 2 2 3 3 4 6 6 6 9 7 4 1 3 10 9 8 7 6 7 6 4 4 2 4 1 1 3 2 0 4 6 9 11 7 9 7 7 9 10 9 10 12 11 12 12 9 9 8 5 3 2 3
5 6 6 7 7 8 10 7 7 16 15 8 9 13 12 14 16 13 6 3 3 5 3 4 3 2 3 4 2 1 1 1 1 4 3 1 1 2 4 2 2 6 7 4 9 7 4 2 2 8 7 7 7 4 4 4 3 5 3 3 2 2 2 1 4 6 4 2 3 3 6 4 6 7 7 5 8 11 9 11 11 8 8 7 5 4 3 4
5 6 6 7 7 8 7 3 8 17 10 6 14 18 15 14 15 11 6 4 2 4 4 3 1 3 6 4 1 2 4 2 5 5 2 2 1 3 4 4 2 4 6 2 5 3 3 4 4 7 6 7 7 4 4 3 5 3 4 2 2 5 5 2 5 6 2 0 3 1 7 2 3 5 5 4 8 10 8 9 9 7 7 7 6 6 6 6
5 5 6 7 7 8 4 2 10 12 4 6 18 20 17 15 12 7 4 4 3 3 2 1 1 2 4 3 1 5 4 2 5 4 1 6 6 4 5 4 3 4 5 2 4 1 2 6 7 7 7 7 6 4 6 3 5 1 5 1 5 6 6 3 4 4 3 2 4 5 7 5 1 4 6 5 8 10 9 10 9 7 7 6 5 5 5 5
5 5 6 6 7 8 6 6 9 8 6 13 19 20 19 14 9 3 5 4 2 2 1 2 2 1 3 3 3 4 2 1 2 4 7 17 13 4 6 5 3 6 7 5 5 1 1 5 5 7 8 6 3 3 5 3 5 2 5 3 6 5 5 4 5 3 3 3 4 4 5 6 2 3 6 5 7 9 8 7 7 7 7 6 5 4 4 5
4 5 5 5 6 6 7 8 7 8 13 18 19 20 18 11 4 4 5 2 1 2 1 1 3 3 3 4 3 1 2 0 4 3 10 18 14 4 4 3 3 7 10 6 6 1 2 3 3 5 6 2 1 2 4 4 3 2 2 3 5 5 5 4 5 3 3 6 3 6 2 5 1 4 5 4 6 6 5 5 5 6 6 6 6 5 5 5
4 5 4 4 5 6 8 9 7 9 15 18 18 18 13 6 4 5 4 1 1 2 1 1 3 3 4 5 4 2 2 2 3 6 7 9 11 8 3 2 5 6 8 7 5 3 2 1 2 4 2 1 1 2 4 4 2 1 3 5 6 6 5 4 3 3 4 4 3 5 3 6 2 2 3 1 2 2 2 3 4 5 7 7 6 6 6 5
4 4 3 4 5 7 7 6 7 10 13 17 19 14 7 4 4 5 2 1 1 3 3 3 3 4 5 5 3 4 3 4 3 7 5 6 9 10 5 4 5 5 6 7 5 5 4 4 4 1 0 2 4 5 5 6 5 5 5 5 5 4 5 5 5 5 5 1 3 3 5 7 4 2 3 3 3 3 2 3 4 6 7 7 7 7 7 7
3 3 3 4 6 7 7 6 8 10 13 18 16 7 4 4 4 2 0 2 2 3 3 3 3 5 5 4 3 3 2 4 5 7 6 5 6 7 6 4 2 4 5 4 4 5 3 2 1 1 1 3 5 4 5 7 7 6 5 5 5 4 4 4 4 3 2 1 3 4 4 6 2 3 3 5 5 4 4 4 4 6 7 7 7 7 7 7
3 3 4 5 7 9 9 8 9 9 13 17 10 4 5 5 2 2 2 2 0 3 2 2 5 5 3 4 4 4 3 5 6 6 5 4 5 6 7 5 4 4 1 1 3 4 3 4 5 4 4 2 5 5 4 4 6 5 3 4 4 3 3 2 2 2 1 2 3 5 3 3 3 3 3 5 5 5 6 5 4 7 7 6 6 7 7 7
4 4 6 8 9 10 8 6 6 7 13 13 6 5 7 5 1 2 2 2 2 2 2 2 6 7 2 2 2 2 5 6 5 6 4 3 5 5 5 6 7 4 2 2 3 2 2 3 5 5 4 3 5 5 2 3 4 4 1 5 4 2 3 1 1 2 1 2 4 6 3 1 2 3 4 5 5 6 5 2 4 7 6 5 6 7 7 7
5 6 8 9 10 8 6 4 3 4 8 6 6 5 5 2 3 1 1 3 2 3 4 3 4 5 4 3 2 1 3 3 4 7 6 4 4 4 3 4 6 4 4 3 1 1 2 2 5 5 4 3 6 5 2 5 4 4 1 5 2 1 4 2 2 4 3 1 3 4 2 2 2 3 7 5 5 6 3 5 7 7 6 6 6 6 6 5
6 8 8 9 9 6 4 2 2 2 3 5 6 3 2 2 2 1 1 2 1 2 4 5 5 5 4 4 4 5 2 2 3 4 4 4 4 4 4 3 4 5 4 2 0 1 2 2 6 6 6 6 6 5 7 5 2 2 3 2 3 2 5 4 1 1 3 4 2 2 1 3 2 2 6 4 4 5 4 7 7 6 6 7 6 5 5 5
7 8 7 10 9 5 4 3 4 2 2 6 5 1 2 2 2 2 1 2 2 1 3 4 4 4 3 3 4 6 6 4 3 3 3 3 3 4 5 4 4 6 2 3 1 1 2 1 6 5 6 5 3 7 12 9 3 4 3 3 3 2 4 4 2 3 4 3 1 1 1 2 2 1 3 4 5 4 5 6 6 6 6 6 5 5 5 5
8 7 7 9 6 6 6 6 6 2 4 5 3 1 1 1 1 1 1 2 2 3 5 3 2 2 2 2 3 6 6 4 4 3 3 3 2 2 5 4 4 7 5 3 3 1 3 2 5 4 4 5 5 7 9 9 6 5 1 2 2 3 3 3 2 1 2 2 0 1 0 1 1 1 1 3 4 3 4 5 5 6 5 5 5 5 5 5
7 4 4 4 5 8 8 8 6 4 6 4 1 1 1 1 2 2 1 1 2 4 5 1 1 2 2 2 1 4 5 4 3 3 3 2 1 1 4 3 4 7 7 5 3 1 2 4 2 6 5 4 5 6 4 5 6 5 3 3 3 3 2 1 1 1 3 3 2 1 1 1 1 2 1 3 3 4 4 4 5 4 4 3 3 3 4 4
4 2 3 1 7 10 9 7 4 5 4 1 2 2 1 1 2 4 2 2 2 2 2 1 2 3 2 2 2 2 3 4 3 3 2 1 0 2 4 3 3 5 5 6 4 1 2 4 1 6 7 4 3 3 2 1 3 5 5 5 4 2 1 2 1 1 2 3 2 2 2 2 3 2 2 5 4 4 5 4 3 2 3 3 2 2 2 1
4 3 3 2 9 8 6 4 3 3 2 0 1 2 1 1 1 4 4 3 3 1 2 3 3 2 1 2 3 2 2 3 3 3 2 1 2 1 4 2 2 4 3 5 5 2 2 2 2 2 4 5 3 2 2 5 4 4 3 2 2 2 3 3 2 3 1 3 3 3 3 3 3 1 2 4 5 5 5 5 4 2 3 2 3 3 2 1
4 1 3 2 7 5 4 4 2 1 3 1 1 1 1 1 0 2 4 3 3 2 3 3 3 2 1 1 2 2 3 3 3 3 1 1 3 2 3 3 3 2 3 2 3 1 2 3 4 2 0 5 5 2 5 6 6 6 3 2 3 3 4 4 1 2 2 3 1 2 2 3 4 2 2 3 5 5 5 5 5 2 2 2 2 4 4 4
3 2 5 2 5 3 6 4 4 3 1 2 1 2 2 2 2 2 3 4 4 3 3 2 2 2 1 1 1 2 3 3 3 2 3 1 1 2 2 3 4 3 4 2 3 2 2 3 4 2 3 2 1 3 4 5 6 6 3 2 3 2 2 4 4 2 1 3 1 2 1 3 4 1 4 4 4 4 4 5 5 3 2 3 4 4 4 4
2 3 4 3 4 1 5 2 0 1 2 2 3 4 3 3 2 2 2 3 2 2 3 2 1 1 1 1 2 3 3 3 2 1 3 2 1 1 2 3 3 4 3 1 1 2 2 1 3 4 3 5 6 7 6 6 5 3 2 3 3 3 4 2 1 3 3 2 2 3 1 4 4 1 5 5 4 4 4 4 4 4 3 2 3 4 4 5
1 1 3 3 1 2 2 3 4 3 0 3 4 2 3 3 2 4 3 2 1 3 2 1 2 3 2 2 3 4 4 4 2 1 1 2 1 0 2 2 3 4 2 3 2 3 2 1 3 4 3 1 1 3 3 3 3 2 3 4 3 4 6 3 2 4 2 1 3 4 3 5 5 2 6 5 4 4 1 1 3 3 3 1 3 4 4 4
2 1 3 5 4 3 0 1 4 5 2 4 3 2 3 2 1 3 4 2 1 3 3 1 2 4 5 5 4 4 5 5 3 2 3 1 0 1 3 3 2 3 3 2 3 4 3 2 2 5 5 5 5 5 5 2 3 1 3 3 2 1 5 5 4 3 1 1 2 2 5 4 4 2 6 4 3 3 2 3 4 3 2 2 2 3 3 3
2 0 0 1 3 3 3 3 3 4 3 4 2 0 2 3 1 1 3 2 2 3 3 3 3 4 3 4 5 3 4 5 5 4 3 2 1 0 1 2 3 3 3 3 3 4 4 3 2 2 2 5 6 6 4 3 4 2 2 2 3 1 5 6 3 3 3 4 1 4 3 5 4 3 5 4 3 4 4 5 5 4 3 2 2 3 3 4
1 1 1 2 1 0 1 1 2 4 4 4 2 1 2 3 1 0 1 1 1 3 3 3 5 4 3 3 4 2 3 4 5 3 2 3 3 3 3 3 3 3 4 4 3 4 5 1 2 2 4 5 4 6 5 4 3 3 3 2 3 1 3 4 3 5 5 5 4 5 3 6 5 4 5 6 5 7 7 6 5 4 3 2 3 3 3 4
1 1 2 2 1 2 2 3 4 6 5 3 2 1 2 3 1 1 1 2 2 2 5 2 3 2 4 4 5 3 1 2 2 3 1 1 2 2 3 3 4 3 4 3 2 3 5 1 3 1 4 7 4 5 6 5 3 3 3 4 4 5 5 5 3 4 5 5 6 5 7 6 5 6 6 5 5 6 5 4 4 4 3 2 3 4 3 3
1 0 2 3 3 2 1 1 5 5 3 3 2 0 2 4 2 1 2 4 2 2 4 5 4 2 4 5 6 4 3 6 5 2 3 2 2 0 2 0 2 3 4 3 1 2 4 1 3 3 4 7 5 2 4 5 4 3 5 4 2 4 3 3 2 2 3 3 3 6 7 4 5 5 4 4 6 6 5 5 4 5 4 4 5 5 3 3
1 3 1 2 2 4 3 2 4 5 1 2 2 2 1 3 4 2 3 2 5 4 3 6 6 3 4 6 6 3 4 7 7 5 6 5 2 3 2 2 4 2 3 1 1 2 3 1 2 5 5 4 4 3 3 3 5 2 5 6 1 3 3 1 2 3 2 3 4 5 4 4 6 4 1 5 7 7 6 6 5 4 4 5 6 5 5 5
4 2 2 3 1 3 2 2 3 4 1 2 4 4 2 4 5 5 4 3 2 5 6 8 6 3 4 5 3 5 6 6 7 7 6 5 4 4 3 4 5 5 3 1 1 1 3 3 1 3 3 3 5 4 3 4 7 2 4 3 3 3 2 2 3 3 2 4 6 4 5 5 5 3 2 4 5 6 6 5 4 2 3 4 4 4 4 5
Wind_Direction
346 347 347 349 347 346 343 338 337 339 342 336 332 332 331 333 329 329 331 334 341 343 346 347 359 2 357 352 337 326 323 321 310 286 263 255 258 265 273 270 235 207 214 238 231 221 272 231 250 253 256 321 189 209 228 194 181 152 175 222 234 226 232 214 200 257 288 278 197 181 123 113 111 109 108 70 74 91 73 38 49 43 43 72 117 149 163 172
350 352 353 355 352 350 347 343 345 346 344 337 336 334 331 330 327 332 336 342 349 349 350 351 3 6 357 352 336 332 335 329 313 282 262 259 263 256 249 241 228 222 211 218 219 210 356 291 312 340 27 257 228 225 253 218 172 162 161 195 232 214 228 259 253 275 293 191 212 229 140 126 130 136 130 101 95 102 89 46 53 72 60 64 101 144 161 173
357 358 359 -0 357 353 348 346 350 349 346 342 338 334 333 330 331 338 341 348 351 348 349 352 359 358 356 354 340 337 339 339 320 279 268 251 209 217 220 227 222 226 222 208 204 204 282 296 317 338 245 244 266 272 293 282 254 188 162 177 242 223 246 280 281 285 275 187 198 251 191 135 135 127 109 116 120 116 119 129 122 121 131 121 129 158 166 187
2 2 4 2 358 352 350 353 354 351 348 344 340 339 337 335 339 345 349 352 347 346 351 356 358 359 2 353 343 337 341 359 309 264 256 114 109 131 165 209 209 216 211 194 196 217 268 297 309 313 205 267 280 319 286 252 261 227 166 183 234 223 263 274 260 275 273 122 44 314 110 129 139 114 114 124 116 112 145 155 152 153 158 157 175 183 180 201
4 5 7 2 357 355 357 359 358 355 350 346 346 345 346 348 351 353 353 343 338 350 357 1 2 5 3 347 341 331 359 39 284 257 205 124 91 99 123 154 182 189 190 190 204 242 291 292 296 288 213 250 267 281 249 234 188 232 226 211 232 221 258 263 243 256 278 59 37 11 54 114 130 120 135 136 132 167 178 168 157 155 162 168 174 177 184 202
5 9 9 2 -0 1 2 0 359 356 351 351 353 354 356 355 353 351 342 338 347 358 2 6 4 6 356 336 326 338 42 68 261 242 172 130 98 107 128 157 177 184 192 201 229 285 299 279 230 229 199 236 254 230 250 246 170 219 271 233 232 220 232 266 255 227 204 62 36 356 10 27 104 122 144 142 149 172 175 173 159 152 157 160 162 161 177 199
6 10 11 7 6 5 2 2 2 360 358 359 1 2 1 356 352 348 344 350 357 2 6 5 7 7 354 339 315 4 65 251 250 190 138 120 114 124 145 168 174 190 202 210 247 263 281 311 262 211 148 259 254 235 263 272 176 202 260 237 228 218 226 274 263 211 123 96 185 139 49 82 122 113 117 133 152 158 164 175 151 132 140 145 154 167 180 191
8 12 14 12 8 7 6 7 7 6 6 6 8 8 4 356 352 350 353 358 1 6 5 1 7 3 358 18 47 19 358 289 238 159 119 108 132 148 165 179 184 207 218 234 248 263 351 331 291 254 104 258 248 260 284 304 197 202 241 245 244 234 261 295 253 194 76 102 144 63 44 220 165 116 111 133 145 148 157 166 145 134 142 151 165 175 181 188
10 12 15 14 9 9 10 11 11 10 9 8 10 10 8 359 353 356 357 359 5 6 358 0 4 358 11 49 88 45 329 315 81 119 113 124 151 157 169 188 213 229 241 258 255 245 351 289 264 275 268 269 303 302 296 314 263 216 228 248 296 305 301 315 322 347 313 277 60 39 329 269 148 109 110 137 145 149 154 156 152 149 154 164 172 175 181 189
10 12 15 13 9 10 11 13 12 9 7 6 6 6 8 2 357 357 351 357 3 357 359 8 1 1 20 3 72 67 301 340 104 113 116 133 155 172 195 212 235 246 253 271 261 204 198 236 260 266 260 287 321 308 307 300 267 264 252 271 289 297 298 321 324 313 311 315 111 171 265 271 135 108 116 144 146 149 152 154 155 155 161 167 173 175 178 189
8 10 12 10 9 10 12 13 10 7 6 5 3 -0 2 -0 360 355 349 352 348 350 2 6 3 7 19 75 83 102 226 152 137 132 125 156 184 212 235 244 244 248 252 270 273 245 227 240 253 275 292 330 324 310 302 238 278 291 317 346 307 322 331 325 298 290 345 316 217 169 233 290 342 109 142 150 148 154 152 152 157 163 170 170 173 176 174 189
7 7 8 7 6 7 10 11 8 7 4 5 3 356 355 355 357 352 350 350 344 353 -0 -0 4 358 15 75 62 145 171 161 172 224 256 232 244 266 281 281 264 256 251 248 278 283 250 244 278 41 257 316 336 320 309 317 332 309 17 357 308 350 336 298 292 283 156 282 237 143 2 319 325 127 146 149 149 154 148 150 162 169 175 170 169 172 173 184
3 3 3 2 1 3 6 8 9 10 6 6 4 357 353 350 351 350 352 351 349 359 360 356 343 337 38 58 344 124 160 167 161 246 266 266 280 292 292 281 268 263 250 234 272 315 324 313 13 26 251 327 318 275 317 328 340 318 12 49 320 4 324 281 280 268 197 238 180 139 283 289 287 145 142 149 151 148 145 153 164 167 171 168 165 168 171 176
359 359 357 357 358 357 1 6 9 9 6 5 1 356 349 345 345 343 346 345 347 0 -0 356 345 343 59 346 305 89 185 202 192 242 252 246 260 285 292 275 262 262 254 246 276 313 313 311 341 349 280 292 272 298 336 334 342 325 340 11 11 21 286 276 259 203 205 233 163 134 169 255 277 228 151 157 152 147 148 157 162 165 166 163 166 164 165 171
354 353 352 353 352 352 358 3 4 4 4 360 356 352 343 337 335 335 340 339 337 350 358 4 5 9 40 334 316 78 208 205 227 247 243 235 237 256 276 264 258 262 268 273 281 286 290 306 336 15 294 290 3 357 349 333 333 356 344 321 343 53 271 287 283 202 200 246 168 136 139 259 291 319 174 170 159 149 151 160 162 163 162 160 165 162 160 164
347 346 346 347 345 348 352 356 359 360 357 351 348 347 339 328 322 326 327 329 331 338 357 12 13 39 85 335 314 307 226 220 247 255 249 244 233 240 272 274 264 258 259 267 271 278 288 311 335 163 284 321 33 43 18 359 336 356 72 299 316 349 300 309 348 307 206 177 186 149 78 343 2 7 24 143 147 144 152 160 160 158 158 156 153 145 134 123
341 340 341 343 342 345 347 352 355 352 349 346 344 343 336 321 309 312 310 321 329 329 355 347 347 30 73 304 303 286 242 237 254 259 253 245 240 253 275 281 260 256 261 263 266 282 303 337 295 291 345 339 22 73 46 16 341 342 13 21 311 347 352 345 11 354 344 94 212 92 65 43 43 29 27 73 118 146 159 156 154 146 136 130 114 104 97 98
334 334 337 340 341 343 346 349 349 345 344 343 341 337 330 317 296 298 303 312 331 343 8 320 358 49 351 285 254 254 246 240 252 257 251 247 253 266 268 253 245 271 315 289 265 265 311 358 355 11 353 350 22 66 68 26 24 27 27 36 341 13 26 11 11 342 357 42 69 65 63 48 45 36 23 39 97 140 156 133 129 122 113 117 108 108 113 111
327 330 334 340 341 344 345 344 344 342 341 345 348 342 342 349 314 271 182 171 0 346 322 260 91 96 229 254 244 249 243 242 264 269 261 257 254 262 270 272 264 295 10 332 298 246 126 21 17 8 318 335 35 75 105 117 95 90 84 73 38 34 22 13 12 0 37 56 57 68 67 50 45 38 31 31 58 90 101 96 106 112 110 115 107 109 112 105
320 324 330 339 340 343 342 340 341 341 341 346 350 353 11 18 12 345 302 178 187 226 236 227 201 182 241 260 244 214 215 247 268 284 279 273 252 264 280 288 317 3 195 237 290 297 100 66 340 263 271 27 59 79 104 95 80 86 79 65 54 49 16 11 15 16 64 71 51 67 68 55 50 41 38 40 50 59 66 80 90 95 96 100 102 102 97 96
313 319 328 337 337 340 340 339 341 342 344 345 349 10 33 359 40 340 317 303 243 221 228 232 220 214 200 236 255 176 107 313 280 277 279 279 304 353 310 341 6 322 265 219 208 350 64 77 346 262 111 77 67 64 66 59 56 60 61 48 35 48 13 359 18 19 71 83 54 66 70 55 51 49 44 46 51 51 54 70 76 83 90 98 104 104 102 102
308 313 326 334 336 337 335 341 343 340 345 347 351 23 266 304 92 4 337 309 295 256 233 239 230 257 254 250 305 74 83 346 307 277 273 297 29 30 303 41 71 274 288 336 77 35 46 58 4 45 77 71 52 40 49 49 55 54 46 59 24 20 3 337 22 29 65 83 53 60 72 55 43 50 50 49 53 51 53 66 72 81 84 79 90 102 113 119
304 310 326 332 336 336 332 343 348 341 345 345 339 333 329 28 27 359 16 150 299 309 279 239 201 298 304 302 354 90 106 242 279 280 280 355 16 28 68 11 357 308 337 48 86 80 65 354 25 59 60 62 47 24 38 37 41 46 41 83 19 340 68 11 10 45 79 106 109 73 72 60 36 45 51 48 52 51 49 57 60 66 75 64 46 43 62 106
302 313 328 330 335 339 336 346 357 348 348 350 346 358 16 16 7 1 24 123 303 300 272 306 102 229 263 305 345 63 57 217 167 290 308 45 349 343 57 359 355 14 7 68 89 93 103 298 41 68 57 69 67 22 35 40 9 353 33 113 135 355 112 176 154 62 71 118 139 111 68 45 24 41 47 41 51 53 45 53 56 54 77 92 88 72 35 41
305 317 330 334 338 344 342 352 4 351 355 22 14 -0 3 2 357 4 28 76 340 308 310 2 9 312 296 293 285 152 94 57 215 262 284 81 19 8 25 348 52 24 347 58 91 84 76 330 41 73 56 64 72 20 24 77 36 341 293 187 174 121 120 193 104 78 41 60 172 137 81 28 350 33 43 30 52 57 49 56 59 48 59 78 87 88 75 59
306 316 333 338 343 352 348 348 351 349 357 24 359 347 341 344 348 1 35 68 4 304 320 4 13 331 316 293 212 101 59 343 267 256 277 346 345 86 41 342 42 20 329 36 90 89 48 7 44 79 67 55 53 11 347 74 92 3 286 227 108 78 50 28 98 93 83 338 308 62 108 129 319 15 9 12 57 58 51 57 58 45 42 41 41 48 56 66
301 314 334 337 351 5 355 311 342 352 5 338 341 337 328 328 335 354 53 50 7 282 290 292 239 349 307 282 71 78 60 315 288 282 357 29 12 74 58 352 16 7 316 65 58 345 50 29 33 52 58 51 40 8 336 19 96 327 285 66 85 82 67 63 94 94 145 162 354 27 101 118 17 354 324 346 55 53 42 48 48 45 44 38 36 45 58 67
292 310 326 328 350 6 354 338 343 355 356 334 333 330 326 325 328 8 86 68 327 276 288 272 288 302 268 304 35 106 192 204 50 328 28 43 30 59 57 359 35 15 348 83 100 270 85 62 49 49 52 48 24 346 333 38 93 305 286 103 105 109 94 83 92 102 127 92 15 349 91 93 28 327 315 348 51 48 32 38 44 49 52 52 54 60 72 75
286 300 315 324 337 350 346 342 343 350 347 340 334 328 324 328 353 53 78 90 267 286 269 287 330 310 295 336 358 158 245 36 83 24 30 41 26 44 83 357 48 33 9 67 111 85 90 119 113 79 63 40 322 331 358 53 91 287 305 86 78 71 66 70 90 99 72 65 357 299 52 102 70 317 321 357 44 31 8 24 42 52 54 54 53 52 62 74
280 289 301 316 317 327 331 330 339 348 346 341 335 328 326 343 52 60 46 75 228 284 275 16 353 336 14 24 344 335 26 9 68 63 40 35 23 26 70 37 60 55 18 37 62 41 58 109 66 68 78 144 101 36 22 31 38 24 44 45 42 36 29 40 57 68 67 49 324 318 40 101 128 292 296 331 36 333 343 29 33 44 49 46 44 42 47 58
275 283 287 288 296 314 321 325 344 348 348 343 335 336 352 17 65 82 63 29 335 321 332 343 334 349 29 51 355 338 23 354 24 72 45 23 33 26 17 22 39 43 19 17 11 0 21 49 41 7 230 98 71 41 15 6 20 47 46 42 44 10 10 24 4 31 73 19 298 338 46 74 93 220 263 296 305 300 4 42 44 51 48 45 49 46 45 52
270 273 273 275 283 290 285 300 335 346 348 341 337 355 56 40 35 78 319 346 354 309 307 301 318 348 10 38 16 338 5 14 37 80 71 45 46 41 43 38 33 42 19 356 357 358 15 57 22 287 333 64 75 40 359 359 18 44 47 54 59 13 15 28 348 16 75 263 312 343 32 66 69 243 261 300 308 321 340 3 56 69 58 51 54 50 48 51
275 279 282 280 279 277 273 291 321 336 340 339 346 47 75 70 36 320 310 345 256 256 280 323 327 327 358 30 3 337 15 38 45 68 75 72 61 44 40 33 50 84 80 323 20 9 345 331 342 3 345 12 80 57 11 0 12 27 50 79 81 61 53 22 322 22 355 260 322 344 31 64 326 280 254 278 298 321 326 330 47 71 64 57 55 53 52 48
298 300 299 293 282 272 271 291 311 322 330 342 21 63 57 77 255 322 1 312 250 283 324 351 325 327 18 58 351 2 43 39 48 64 47 47 60 35 16 10 22 71 113 66 50 39 36 332 341 8 334 332 52 46 73 99 31 2 94 109 93 110 113 132 207 145 206 256 325 348 35 99 274 267 262 275 312 326 325 347 58 65 59 58 54 47 50 43
314 312 306 301 289 266 257 275 289 314 328 3 62 62 65 100 256 318 349 289 299 332 336 348 356 13 21 355 331 13 93 75 64 70 57 50 53 12 356 357 2 40 73 57 22 28 78 270 308 342 337 27 45 15 36 93 46 345 59 85 49 202 133 103 166 164 165 85 358 4 29 242 237 274 289 309 339 330 355 60 53 46 40 48 49 39 44 44
320 321 315 305 292 255 243 271 235 268 351 61 66 51 113 175 229 183 230 283 313 315 338 4 23 39 15 344 335 336 18 104 88 66 52 61 58 8 351 337 352 25 56 82 285 0 59 292 304 344 10 41 55 29 37 71 100 358 34 34 276 219 123 106 101 78 81 76 16 9 353 305 331 315 303 338 8 348 27 54 45 38 36 40 38 27 30 33
327 327 312 297 286 238 237 259 205 196 53 78 83 95 192 205 220 207 275 323 322 348 59 49 22 24 16 4 340 340 12 36 39 55 36 26 29 349 335 314 351 12 27 125 147 262 112 296 308 359 22 2 13 50 46 42 74 85 39 304 282 0 70 96 97 16 45 80 324 19 49 313 2 347 322 25 48 31 36 48 46 37 38 40 27 19 18 15
333 328 303 289 262 211 222 216 184 136 61 75 89 209 203 233 269 257 343 351 344 34 68 79 39 41 57 43 340 348 30 27 0 48 63 20 7 339 343 321 341 357 354 84 86 320 96 86 303 343 11 325 346 54 46 15 29 79 74 303 66 64 21 41 79 68 76 107 137 33 19 308 74 249 318 45 63 58 48 49 52 39 40 48 26 14 14 13
353 356 326 302 196 178 179 174 159 74 59 66 50 255 171 217 279 266 237 51 48 64 68 69 67 65 60 76 345 348 41 57 16 48 78 43 11 319 357 338 330 350 4 60 81 299 82 100 295 321 334 336 8 40 34 349 5 30 11 10 55 116 139 86 93 127 120 134 150 144 233 287 233 238 189 122 124 107 84 58 52 34 25 44 38 21 21 17
22 46 311 317 151 162 160 145 98 56 71 107 194 174 142 193 274 290 296 80 90 88 89 72 55 64 16 20 24 357 50 75 59 64 74 48 32 314 337 344 335 345 13 52 64 28 50 88 62 326 340 25 28 6 31 53 31 34 35 25 10 2 71 86 59 43 102 124 136 147 175 254 251 240 157 151 149 126 119 104 83 25 3 6 341 351 22 30
51 44 282 140 137 157 145 100 47 70 113 129 177 152 124 166 250 316 335 60 103 128 122 113 83 92 112 20 18 353 49 66 61 71 56 29 117 283 302 322 351 338 11 39 34 41 51 81 96 350 5 69 76 333 57 92 95 95 91 69 46 51 70 76 24 334 50 113 148 165 163 249 251 205 165 163 149 146 145 127 115 84 47 25 316 313 315 281
78 51 279 145 155 175 94 56 321 85 116 158 170 131 122 147 84 349 343 27 68 52 63 83 76 85 105 58 30 19 68 70 48 73 105 158 137 175 277 338 19 21 71 50 327 292 125 97 80 48 32 121 123 65 66 85 90 89 87 98 100 80 89 110 142 283 0 45 72 129 116 261 251 166 168 177 155 161 163 142 134 117 75 57 9 352 341 308
112 233 292 300 215 202 75 44 326 20 46 234 187 59 53 61 66 54 14 26 43 37 37 39 52 85 94 144 105 49 71 86 66 104 159 149 120 198 283 4 31 55 71 54 310 328 65 66 60 22 314 308 329 359 39 61 69 67 27 33 88 77 105 146 170 171 49 7 5 83 64 270 269 146 158 175 162 160 162 157 146 112 59 35 29 14 1 353
187 238 292 292 235 174 86 102 79 45 302 313 51 37 19 30 67 81 45 31 42 60 61 10 0 81 122 136 95 59 69 95 81 119 154 135 237 214 99 62 63 71 73 160 211 22 38 40 68 65 2 347 343 347 2 7 31 69 350 358 67 68 61 74 79 78 48 353 98 105 172 257 276 140 155 171 162 158 167 171 150 115 106 40 9 352 354 22
0 290 297 293 284 74 115 174 149 148 217 51 60 44 36 26 49 101 92 47 57 95 99 307 347 52 32 40 60 44 56 89 106 341 55 106 198 252 122 125 99 90 138 196 165 85 87 99 94 105 103 61 350 312 297 315 354 22 340 356 37 60 65 71 62 67 43 340 81 116 192 256 296 142 160 183 176 170 180 120 106 98 113 87 3 354 0 32
57 11 309 324 4 50 2 213 115 124 142 97 65 30 82 72 341 113 101 65 47 82 83 317 354 41 27 39 54 31 34 58 80 62 37 57 159 239 203 181 105 101 129 127 83 81 84 62 98 128 149 175 194 224 223 165 66 355 317 341 332 59 87 91 87 93 142 110 65 189 188 211 280 192 172 205 203 180 170 100 93 82 78 56 13 16 41 56
69 162 235 347 343 5 357 352 73 106 150 129 102 344 136 145 246 18 55 88 143 95 62 2 21 53 33 47 63 27 12 26 41 54 28 3 26 299 210 127 70 84 96 61 51 87 83 20 358 102 160 210 204 214 214 137 117 198 255 324 299 292 85 86 114 178 149 100 333 276 192 171 240 224 179 197 190 154 150 139 139 147 133 94 43 37 58 60
80 219 189 125 180 299 56 74 106 104 116 121 115 189 151 129 134 118 16 86 118 95 84 6 6 51 70 86 97 65 12 25 16 5 355 0 14 10 9 19 25 52 67 35 20 90 99 32 297 356 323 284 229 206 192 136 141 199 220 234 244 213 121 116 170 193 138 124 214 244 166 170 226 235 196 188 167 151 156 167 166 153 139 108 96 96 81 70
65 13 312 41 109 205 182 146 116 103 104 102 76 99 137 122 141 182 142 83 9 22 102 111 310 12 61 80 107 104 74 89 24 310 288 27 11 30 43 8 340 9 59 48 3 84 102 269 279 8 341 322 304 206 178 134 143 227 259 242 205 185 171 148 175 198 136 141 197 178 146 174 215 217 210 186 155 149 147 154 154 145 146 104 95 106 94 80
55 126 307 13 26 305 291 66 92 94 71 63 72 229 144 127 146 185 94 109 130 326 82 130 203 178 81 80 98 110 179 162 156 214 179 110 15 40 115 195 270 343 29 56 355 38 77 309 287 67 32 338 335 239 182 126 141 222 300 301 197 153 129 109 155 192 117 130 180 136 134 191 239 225 202 138 135 139 133 150 177 182 165 108 93 111 132 146
322 230 233 66 2 327 337 5 85 101 55 26 132 200 135 151 173 131 48 100 150 156 141 155 174 143 75 77 96 135 200 166 159 194 179 151 165 176 163 192 169 102 10 20 25 29 65 13 335 60 56 319 317 305 293 43 76 39 326 317 243 143 120 139 218 209 171 171 154 119 138 217 247 247 169 117 143 154 157 174 194 194 153 117 120 149 176 189
0 291 29 91 224 321 0 355 43 96 192 234 185 183 179 201 189 119 67 350 68 116 147 156 149 102 76 89 137 199 205 178 185 212 194 174 203 197 187 199 162 136 159 165 55 39 103 94 41 70 73 283 292 300 297 40 52 0 283 260 198 155 107 32 327 293 217 156 145 161 212 223 224 217 118 120 158 168 173 189 197 175 115 109 150 186 208 221